• Join FlightAware (Why Join?)
  • Login
  • US Flag GB Flag 
17:59 EDT


 

Airport Tracker/Info


-or-


 

Live Flight TrackerFlight Track Log ✈ N441R ✈ 29-Jul-2013 ✈ KBLF - KBUF

Flight Track Log - Related Links

Times and Time Zones

All times are in EDT time to prevent confusion due to time zone crossing. See the N441R flight status page for this flight to view local times or setup timezone preferences in your user account.

Time Position Orientation Groundspeed Altitude Reporting Facility
EDT Latitude Longitude Course Direction KTS MPH feet Rate Location/Type
07:59 37.3253 -81.1617 32° Northeast 164 189 5,200  Level Indianapolis Center
08:00 37.3661 -81.1297 32° Northeast 178 205 7,000 1,980 Climbing Indianapolis Center
08:01 37.4206 -81.0789 37° Northeast 207 238 9,300 2,040 Climbing Indianapolis Center
08:02 37.4656 -81.0347 38° Northeast 212 244 11,300 1,920 Climbing Indianapolis Center
08:03 37.5175 -81.0192 13° North 195 224 13,300 1,920 Climbing Indianapolis Center
08:04 37.5714 -80.9997 16° North 204 235 15,300 2,040 Climbing Indianapolis Center
08:05 37.6344 -80.9756 17° North 201 231 17,500 1,860 Climbing Indianapolis Center
08:07 37.6847 -80.9544 18° North 197 227 19,200 1,680 Climbing Indianapolis Center
08:08 37.7394 -80.9350 16° North 204 235 21,000 1,620 Climbing Indianapolis Center
08:09 37.7961 -80.9114 18° North 215 247 22,600 1,500 Climbing Indianapolis Center
08:10 37.8603 -80.8881 16° North 225 259 24,100 1,320 Climbing Indianapolis Center
08:11 37.9214 -80.8631 18° North 230 265 25,400 1,200 Climbing Indianapolis Center
08:12 37.9836 -80.8386 17° North 233 268 26,600 720 Climbing Indianapolis Center
08:13 38.0650 -80.8069 17° North 252 290 27,000 180 Climbing Indianapolis Center
08:14 38.1419 -80.7761 17° North 282 325 27,000  Level Indianapolis Center
08:15 38.2214 -80.7428 18° North 296 341 27,000  Level Indianapolis Center
08:16 38.3014 -80.7119 17° North 300 345 27,000  Level Indianapolis Center
08:17 38.3811 -80.6797 18° North 300 345 27,000  Level Indianapolis Center
08:18 38.4617 -80.6483 17° North 303 349 27,000  Level Indianapolis Center
08:19 38.5419 -80.6167 17° North 303 349 27,000  Level Indianapolis Center
08:20 38.6381 -80.5767 18° North 303 349 27,000  Level Indianapolis Center
08:21 38.7186 -80.5444 17° North 305 351 27,000  Level Indianapolis Center
08:22 38.8003 -80.5119 17° North 307 353 27,000  Level Indianapolis Center
08:23 38.8814 -80.4797 17° North 306 352 27,000  Level Indianapolis Center
08:24 38.9622 -80.4456 18° North 305 351 27,000  Level Indianapolis Center
08:25 39.0422 -80.4131 18° North 303 349 27,000  Level Indianapolis Center
08:26 39.1222 -80.3806 17° North 302 348 27,000  Level Indianapolis Center
08:27 39.2181 -80.3406 18° North 302 348 27,000  Level Indianapolis Center
08:28 39.2981 -80.3097 17° North 300 345 27,000  Level Indianapolis Center
08:30 39.4267 -80.2578 17° North 298 343 27,000  Level Cleveland Center
08:31 39.5081 -80.2253 17° North 298 343 27,000  Level Cleveland Center
08:32 39.5869 -80.1953 16° North 298 343 27,000  Level Cleveland Center
08:33 39.6683 -80.1597 19° North 298 343 27,000  Level Cleveland Center
08:34 39.7472 -80.1267 18° North 298 343 27,000  Level Cleveland Center
08:35 39.8264 -80.0939 18° North 298 343 27,000  Level Cleveland Center
08:36 39.9056 -80.0608 18° North 298 343 27,000  Level Cleveland Center
08:37 39.9844 -80.0275 18° North 298 343 27,000  Level Cleveland Center
08:38 40.0572 -79.9972 18° North 298 343 27,000  Level Cleveland Center
08:39 40.1364 -79.9639 18° North 298 343 27,000  Level Cleveland Center
08:40 40.2153 -79.9306 18° North 298 343 27,000  Level Cleveland Center
08:41 40.2944 -79.8972 18° North 298 343 27,000  Level Cleveland Center
08:42 40.3756 -79.8636 18° North 298 343 27,000  Level Cleveland Center
08:43 40.4544 -79.8300 18° North 298 343 27,000  Level Cleveland Center
08:44 40.5356 -79.7936 19° North 298 343 27,000  Level Cleveland Center
08:45 40.6144 -79.7625 17° North 298 343 27,000  Level Cleveland Center
08:46 40.6936 -79.7286 18° North 298 343 27,000  Level Cleveland Center
08:47 40.7744 -79.6919 19° North 303 349 27,000  Level Cleveland Center
08:48 40.8536 -79.6581 18° North 298 343 27,000  Level Cleveland Center
08:49 40.9325 -79.6267 17° North 298 343 27,000  Level Cleveland Center
08:50 41.0114 -79.5897 19° North 298 343 27,000  Level Cleveland Center
08:51 41.0925 -79.5556 18° North 298 343 27,000 -120 Level Cleveland Center
08:52 41.1733 -79.5211 18° North 298 343 26,800 -720 Descending Cleveland Center
08:53 41.2564 -79.4839 19° North 303 349 25,600 -1,200 Descending Cleveland Center
08:54 41.3436 -79.4464 18° North 309 356 24,500 -840 Descending Cleveland Center
08:55 41.4350 -79.4061 18° North 309 356 24,000 -300 Descending Cleveland Center
08:56 41.5158 -79.3714 18° North 304 350 24,000 -300 Level Cleveland Center
08:57 41.5989 -79.3364 17° North 304 350 23,400 -900 Descending Cleveland Center
08:58 41.6819 -79.2986 19° North 304 350 22,200 -1,320 Descending Cleveland Center
08:59 41.7669 -79.2608 18° North 309 356 20,800 -1,380 Descending Cleveland Center
09:00 41.8519 -79.2228 18° North 309 356 19,500 -1,440 Descending Cleveland Center
09:01 41.9328 -79.1875 18° North 314 361 18,000 -1,440 Descending Cleveland Center
09:02 42.0156 -79.1494 19° North 309 356 16,700 -1,380 Descending Cleveland Center
09:03 42.0964 -79.1142 18° North 304 350 15,300 -1,380 Descending Cleveland Center
09:04 42.1772 -79.0758 19° North 298 343 14,000 -1,320 Descending Cleveland Center
09:05 42.2539 -79.0403 19° North 298 343 12,700 -1,260 Descending Cleveland Center
09:06 42.3306 -79.0075 18° North 298 343 11,500 -900 Descending Cleveland Center
09:07 42.4053 -78.9747 18° North 287 330 11,000 -720 Descending Cleveland Center
09:08 42.4797 -78.9392 19° North 281 323 10,100 -1,140 Descending Cleveland Center
09:09 42.5503 -78.9119 16° North 275 316 8,800 -1,260 Descending Cleveland Center
09:10 42.6144 -78.8847 17° North 268 308 7,600 -1,260 Descending Cleveland Center
09:11 42.6806 -78.8519 20° North 262 302 6,300 -1,380 Descending Cleveland Center
09:12 42.7511 -78.8217 17° North 244 281 4,900 -1,200 Descending Cleveland Center
09:13 42.8003 -78.7694 38° Northeast 225 259 3,900 -900 Descending Cleveland Center
09:15 42.8833 -78.6833 37° Northeast 151 174 2,200 -900 Descending Buffalo TRACON
09:16 42.9167 -78.7000 340° North 102 117 1,100 -960 Descending Buffalo TRACON
09:18 42.9333 -78.7167 26° Northeast  Level FlightAware Approximate
09:25 42.9404 -78.7306 26° Northeast  Level Estimated